[[{"header":{"parameterUnit":"m.s-1","parameterCategory":1,"la1":30.2991,"la2":30.254,"lo1":-89.0895,"lo2":-89.0444,"dy":0.0017,"dx":0.0017,"nx":28,"ny":28,"refTime":"2024-06-29T21:00:00:Z","depth":0,"parameterNumber":2,"parameterNumberName":"U-component_of_WINDS"},"data":[0,0,0,0,0,0,0,0,0,0,0,0,0,0,0,0,0,0,0,0,0,0,0,0,0,0,0,0,0,0,0,0,0,0,0,0,0,0,0,0,0,0,0,0,0,0,0,0,0,0,0,0,0,0,0,0,0,0,0.7427,0.7428,0,0.7479,0.748,0.748,0.7475,0.7474,0.7474,0.7473,0.7528,0.753,0.7533,0,0,0,0,0,0,0,0,0,0,0,0,0,0.7326,0.7328,0.7427,0.7428,0.7428,0.7479,0.748,0.748,0.7475,0.7474,0.7473,0.7472,0.7527,0.753,0.7533,0,0,0,0,0,0,0,0,0,0,0,0,0,0.7374,0.7329,0.7427,0.7432,0.7433,0.7479,0.748,0.7481,0.7476,0.7474,0.7473,0.7472,0.7527,0.753,0.7533,0.7578,0,0,0.7543,0.7545,0,0,0,0,0,0,0,0,0.7371,0.7377,0.743,0.7432,0.7433,0.7469,0.7465,0.7513,0.7476,0.7459,0.7473,0.7471,0.751,0.7514,0.7527,0.7581,0.7583,0.7544,0.7546,0.7547,0.7548,0,0,0,0,0,0,0,0.7368,0.7375,0.7448,0.7431,0.7433,0.7433,0.7438,0.7474,0.7491,0.7461,0.746,0.7467,0.751,0.7524,0.7528,0.7584,0.7544,0.7547,0.7549,0.755,0.7681,0.7682,0,0,0,0,0,0,0.7363,0.7372,0.7446,0.7449,0.7398,0.7435,0.7441,0.7459,0.749,0.7494,0.7468,0.7466,0.7519,0.7524,0.753,0.7588,0.7547,0.755,0.7552,0.768,0.7681,0.7683,0,0,0,0,0,0,0.7361,0.7369,0.7444,0.7411,0.742,0.7438,0.7458,0.7461,0.7474,0.7496,0.7499,0.7478,0.7518,0.7525,0.7567,0.7589,0.7552,0.7555,0.7678,0.768,0.7682,0.7701,0,0,0,0,0,0,0.7358,0.7369,0.7385,0.7411,0.7422,0.7479,0.7459,0.7462,0.748,0.7478,0.7506,0.751,0.7517,0.7562,0.757,0.7593,0.7557,0.7676,0.7679,0.7681,0.7699,0.7704,0.7708,0,0,0,0,0,0.7354,0.7388,0.7386,0.7395,0.7443,0.748,0.7486,0.7494,0.7481,0.7499,0.7513,0.7509,0.7585,0.7566,0.7576,0.76,0.7675,0.7678,0.7681,0.7697,0.7703,0.7708,0,0,0,0,0,0,0.7365,0.7392,0.7389,0.7433,0.7454,0.7479,0.7501,0.75,0.7526,0.7524,0.7532,0.7539,0.7581,0.7594,0.7573,0.7647,0.7628,0.7634,0.7637,0.7643,0.7648,0.7645,0.756,0,0,0,0,0,0.7372,0.7399,0.7421,0.7458,0.7468,0.7483,0.75,0.7504,0.7526,0.7536,0.7553,0.7576,0.7605,0.7624,0.7652,0.77,0.7708,0.7721,0.7726,0.773,0.7735,0.7764,0.7772,0.7694,0.7694,0.7694,0,0,0.7388,0.7406,0.7422,0.746,0.7477,0.7507,0.7491,0.7522,0.7545,0.7541,0.7582,0.7595,0.7621,0.7667,0.7688,0.7679,0.7758,0.7734,0.7737,0.774,0.7769,0.7776,0.7782,0.7696,0.7696,0.7695,0,0,0.7432,0.7447,0.748,0.7497,0.7523,0.7533,0.7541,0.7567,0.7576,0.7616,0.7615,0.7642,0.7692,0.7712,0.7728,0.7781,0.778,0.779,0.7816,0.7844,0.785,0.7856,0.7877,0.7885,0.7795,0.7795,0.7795,0,0.7448,0.7491,0.7497,0.7529,0.7547,0.7544,0.7579,0.7596,0.763,0.7643,0.7633,0.7697,0.7714,0.7766,0.7779,0.7791,0.7803,0.7788,0.7848,0.7854,0.7859,0.788,0.7888,0.7796,0.7796,0.7796,0.7796,0,0.7512,0.7542,0.7566,0.7599,0.7619,0.7652,0.7665,0.7685,0.7687,0.7698,0.7741,0.7762,0.7796,0.7808,0.781,0.7861,0.7855,0.7846,0.7828,0.7868,0.7888,0.7896,0.7798,0.7797,0.7797,0.7797,0,0,0.7565,0.7601,0.761,0.7626,0.7655,0.7679,0.7713,0.7745,0.7764,0.7787,0.7818,0.7861,0.7853,0.7872,0.7877,0.7901,0.7946,0.789,0.7891,0.7902,0.8006,0.8015,0.8024,0.7944,0.7945,0.7947,0.8005,0,0.7614,0.7673,0.768,0.7734,0.7763,0.7761,0.7791,0.7813,0.7825,0.7853,0.7866,0.7897,0.7884,0.7896,0.792,0.7935,0.7967,0.7931,0.7975,0.7976,0.7971,0.8034,0.8042,0.8096,0.8013,0.8014,0.8015,0,0.7679,0.7705,0.7762,0.7789,0.7801,0.7828,0.7859,0.7885,0.7911,0.7918,0.7939,0.7941,0.7978,0.7957,0.801,0.7985,0.8004,0.8014,0.8017,0.8023,0.8,0.8045,0.8113,0.8123,0.8027,0.8026,0.8025,0,0.7716,0.7764,0.7805,0.7819,0.785,0.787,0.7884,0.7908,0.7928,0.7955,0.7969,0.8,0.8018,0.8044,0.8055,0.8038,0.8108,0.8087,0.8117,0.8117,0.8134,0.8134,0.821,0.8141,0.8141,0.8141,0.8141,0,0.7771,0.7807,0.7823,0.7848,0.7889,0.7896,0.7937,0.795,0.7972,0.8002,0.8001,0.8029,0.8041,0.8071,0.808,0.8125,0.8132,0.814,0.8143,0.8142,0.8141,0.8156,0.8154,0.8143,0.8143,0.8142,0.8142,0,0.782,0.7831,0.7877,0.7903,0.791,0.7939,0.7963,0.7988,0.8,0.8037,0.8046,0.8065,0.8101,0.8114,0.8157,0.8164,0.8216,0.8214,0.8207,0.8209,0.8239,0.8237,0.833,0.8344,0.8263,0.8264,0.8264,0,0.7856,0.7884,0.7913,0.7932,0.7947,0.7978,0.7999,0.8008,0.8029,0.8061,0.8084,0.8119,0.8149,0.8206,0.8225,0.8259,0.8259,0.8289,0.8265,0.8264,0.8264,0.8263,0.8268,0.8295,0.8296,0.8296,0.8297,0,0.792,0.7925,0.7954,0.7985,0.8009,0.8035,0.8059,0.8076,0.8089,0.8113,0.815,0.8172,0.8217,0.8254,0.8289,0.8305,0.8305,0.8304,0.8314,0.8315,0.8311,0.8317,0.8223,0.8303,0.8302,0.8302,0.8301,0.8301,0.7966,0.7991,0.8016,0.8049,0.8069,0.8092,0.8118,0.8133,0.8163,0.82,0.8204,0.8244,0.8271,0.8318,0.8336,0.8369,0.8361,0.8374,0.8378,0.8381,0.8385,0.8303,0.8375,0.8375,0.8375,0.8374,0.8374,0,0.8033,0.8049,0.8079,0.8114,0.814,0.8135,0.8163,0.8186,0.8221,0.8245,0.8274,0.8318,0.8353,0.8374,0.8411,0.8433,0.8434,0.8443,0.8443,0.8448,0.8388,0.8378,0.8442,0.8442,0.8442,0.8442,0.8442,0.8442,0.8071,0.8114,0.8122,0.8176,0.8192,0.8231,0.8248,0.827,0.829,0.8339,0.8368,0.8381,0.8405,0.8444,0.8477,0.8483,0.8497,0.8507,0.8513,0.8458,0.8451,0.8445,0.8435,0.851,0.851,0.8569,0.857,0.857]},{"header":{"parameterUnit":"m.s-1","parameterCategory":1,"la1":30.2991,"la2":30.254,"lo1":-89.0895,"lo2":-89.0444,"dy":0.0017,"dx":0.0017,"nx":28,"ny":28,"refTime":"2024-06-29T21:00:00:Z","depth":0,"parameterNumber":3,"parameterNumberName":"V-component_of_WINDS"},"data":[0,0,0,0,0,0,0,0,0,0,0,0,0,0,0,0,0,0,0,0,0,0,0,0,0,0,0,0,0,0,0,0,0,0,0,0,0,0,0,0,0,0,0,0,0,0,0,0,0,0,0,0,0,0,0,0,0,0,-2.9443,-2.9444,0,-2.9582,-2.9584,-2.9585,-2.9626,-2.9625,-2.9625,-2.9624,-2.9763,-2.9767,-2.9772,0,0,0,0,0,0,0,0,0,0,0,0,0,-2.9208,-2.9212,-2.9442,-2.9444,-2.9446,-2.9582,-2.9584,-2.9586,-2.9626,-2.9625,-2.9624,-2.9624,-2.9762,-2.9767,-2.9772,0,0,0,0,0,0,0,0,0,0,0,0,0,-2.9325,-2.9214,-2.9442,-2.9483,-2.9488,-2.9582,-2.9584,-2.9586,-2.9626,-2.9625,-2.9624,-2.9623,-2.976,-2.9766,-2.9773,-2.9835,0,0,-2.9793,-2.9796,0,0,0,0,0,0,0,0,-2.9318,-2.9333,-2.9475,-2.948,-2.9486,-2.9586,-2.9552,-2.967,-2.9627,-2.9574,-2.9624,-2.9623,-2.9705,-2.9716,-2.9744,-2.9842,-2.9848,-2.9793,-2.9797,-2.98,-2.9802,0,0,0,0,0,0,0,-2.931,-2.9328,-2.9498,-2.9477,-2.9484,-2.9493,-2.9508,-2.9575,-2.9643,-2.9578,-2.9581,-2.9598,-2.9707,-2.9738,-2.9748,-2.985,-2.9793,-2.9799,-2.9803,-2.9806,-3.0006,-3.0007,0,0,0,0,0,0,-2.9296,-2.9321,-2.9493,-2.9502,-2.9398,-2.9498,-2.9515,-2.9555,-2.9643,-2.9655,-2.9598,-2.9599,-2.9727,-2.974,-2.9753,-2.9832,-2.98,-2.9806,-2.981,-3.0005,-3.0006,-3.0008,0,0,0,0,0,0,-2.929,-2.9311,-2.9488,-2.9412,-2.9436,-2.9503,-2.9547,-2.9558,-2.9588,-2.9658,-2.967,-2.9617,-2.9727,-2.9743,-2.9815,-2.9837,-2.9809,-2.9815,-3.0003,-3.0005,-3.0007,-2.999,0,0,0,0,0,0,-2.9283,-2.9308,-2.9333,-2.9413,-2.9439,-2.9548,-2.9549,-2.9561,-2.96,-2.9602,-2.9679,-2.969,-2.9727,-2.9805,-2.9821,-2.9846,-2.982,-3.0001,-3.0004,-3.0006,-2.9989,-2.9991,-2.9993,0,0,0,0,0,-2.9275,-2.9322,-2.9335,-2.9355,-2.9472,-2.9549,-2.9564,-2.9607,-2.9602,-2.9627,-2.9672,-2.9688,-2.9832,-2.9812,-2.9831,-2.9857,-3.0,-3.0003,-3.0006,-2.9988,-2.9991,-2.9993,0,0,0,0,0,0,-2.9242,-2.9333,-2.9348,-2.9422,-2.9478,-2.9556,-2.9589,-2.9608,-2.9666,-2.9665,-2.9714,-2.9731,-2.9799,-2.9835,-2.9811,-2.9923,-2.9916,-2.9923,-2.9896,-2.99,-2.9902,-2.9891,-2.9826,0,0,0,0,0,-2.9244,-2.93,-2.9376,-2.9434,-2.9462,-2.9521,-2.9556,-2.9584,-2.9643,-2.9666,-2.9716,-2.9772,-2.983,-2.9867,-2.9924,-2.9995,-3.0012,-3.0023,-3.0025,-3.0026,-3.0032,-3.0072,-3.0077,-3.0018,-3.0018,-3.0018,0,0,-2.9248,-2.9304,-2.9336,-2.9429,-2.9476,-2.9532,-2.954,-2.9599,-2.9641,-2.9675,-2.9745,-2.9784,-2.9849,-2.9921,-2.9955,-2.9953,-3.0052,-3.003,-3.0031,-3.0036,-3.0076,-3.0081,-3.0086,-3.002,-3.002,-3.0019,0,0,-2.9283,-2.9332,-2.9386,-2.9433,-2.9503,-2.9543,-2.9555,-2.9631,-2.9659,-2.9731,-2.9758,-2.9808,-2.9906,-2.9952,-2.9988,-3.0042,-3.0059,-3.0059,-3.007,-3.0109,-3.0114,-3.0118,-3.0137,-3.0143,-3.0064,-3.0064,-3.0064,0,-2.9278,-2.9365,-2.9411,-2.9469,-2.9509,-2.9544,-2.9599,-2.9642,-2.9727,-2.9753,-2.9751,-2.9876,-2.9923,-3.0005,-3.0019,-3.0047,-3.0063,-3.005,-3.011,-3.0114,-3.0119,-3.0138,-3.0145,-3.0064,-3.0064,-3.0064,-3.0064,0,-2.9355,-2.9415,-2.945,-2.9533,-2.9577,-2.9633,-2.9687,-2.9726,-2.975,-2.9789,-2.9862,-2.9919,-2.9989,-3.0011,-3.0035,-3.0097,-3.0094,-3.01,-3.0095,-3.0124,-3.0142,-3.0149,-3.0063,-3.0063,-3.0064,-3.0064,0,0,-2.9372,-2.9482,-2.9494,-2.9532,-2.9613,-2.966,-2.9717,-2.9787,-2.9819,-2.9877,-2.9926,-3.0009,-3.0016,-3.0057,-3.0086,-3.012,-3.0159,-3.0122,-3.0124,-3.0127,-3.0231,-3.0225,-3.0233,-3.0171,-3.0173,-3.0174,-3.0225,0,-2.9418,-2.9523,-2.9567,-2.9651,-2.9707,-2.9742,-2.9792,-2.9846,-2.9885,-2.9937,-2.9978,-3.0037,-3.0041,-3.0066,-3.0102,-3.0147,-3.018,-3.0144,-3.0216,-3.0218,-3.0198,-3.0242,-3.0237,-3.0282,-3.0233,-3.0234,-3.0235,0,-2.9484,-2.9544,-2.9634,-2.971,-2.9735,-2.9779,-2.9846,-2.9896,-2.9959,-2.9984,-3.0031,-3.0059,-3.012,-3.0111,-3.0195,-3.0169,-3.0202,-3.0228,-3.0231,-3.0239,-3.0227,-3.025,-3.0298,-3.0304,-3.0247,-3.0246,-3.0245,0,-2.9487,-2.959,-2.9658,-2.969,-2.9779,-2.9809,-2.9848,-2.991,-2.9949,-3.0008,-3.0034,-3.0098,-3.0133,-3.0182,-3.0227,-3.0216,-3.0307,-3.0302,-3.0329,-3.0328,-3.0345,-3.0343,-3.0398,-3.0367,-3.0367,-3.0367,-3.0367,0,-2.9532,-2.9586,-2.9661,-2.9702,-2.9763,-2.9813,-2.9872,-2.9913,-2.9968,-3.0017,-3.0051,-3.0096,-3.0153,-3.0205,-3.024,-3.0305,-3.032,-3.0342,-3.035,-3.0339,-3.0336,-3.036,-3.0357,-3.0369,-3.0368,-3.0368,-3.0368,0,-2.9546,-2.9598,-2.9674,-2.9753,-2.9774,-2.9816,-2.9883,-2.9924,-2.9965,-3.0027,-3.0044,-3.0107,-3.0171,-3.022,-3.0303,-3.0326,-3.0394,-3.0404,-3.0373,-3.0377,-3.0401,-3.0398,-3.0472,-3.0485,-3.0446,-3.0446,-3.0447,0,-2.9571,-2.9613,-2.9697,-2.9734,-2.9772,-2.983,-2.9871,-2.9921,-2.9962,-3.0037,-3.0069,-3.0136,-3.0191,-3.0291,-3.0344,-3.0407,-3.0418,-3.044,-3.0428,-3.0414,-3.0418,-3.0414,-3.0419,-3.0441,-3.0441,-3.0441,-3.0441,0,-2.961,-2.9634,-2.9692,-2.9759,-2.9807,-2.9862,-2.9918,-2.9945,-3.0006,-3.005,-3.0116,-3.0159,-3.0244,-3.0309,-3.0379,-3.0417,-3.0439,-3.0445,-3.0454,-3.0442,-3.0422,-3.0433,-3.0376,-3.0443,-3.0442,-3.0442,-3.0442,-3.0442,-2.9629,-2.9669,-2.9735,-2.9798,-2.9846,-2.9897,-2.994,-2.9987,-3.0043,-3.0117,-3.0144,-3.0211,-3.0274,-3.0369,-3.0408,-3.0462,-3.0463,-3.0476,-3.048,-3.0482,-3.0481,-3.0415,-3.0474,-3.0474,-3.0474,-3.0474,-3.0474,0,-2.967,-2.9714,-2.9772,-2.985,-2.99,-2.9918,-2.9981,-3.0021,-3.0081,-3.0137,-3.0192,-3.0268,-3.0332,-3.039,-3.0456,-3.0488,-3.0499,-3.0503,-3.0501,-3.051,-3.0476,-3.0461,-3.0493,-3.0493,-3.0493,-3.0493,-3.0493,-3.0493,-2.9696,-2.9764,-2.9796,-2.9888,-2.9932,-3.0,-3.0034,-3.0082,-3.0127,-3.0211,-3.0265,-3.0303,-3.036,-3.0431,-3.049,-3.0506,-3.0528,-3.0529,-3.0547,-3.0514,-3.0512,-3.0509,-3.0496,-3.0534,-3.0534,-3.0576,-3.0576,-3.0577]}]]